User: anonymous   Login
Location: Limerick
(52.6800°N, 8.6400°W)
Time: 09:24:24
(UTC+01:00)
Language:

Sapphire - Orbit

View from above orbital plane
View from above orbital plane
View from above satellite
View from above satellite

Ground track
Ground track

The orbit data is extracted from the following two-line orbital elements,

1 26932U 01043D   15148.92935674  .00000009  00000-0  35402-4 0  9991
2 26932 067.0563 228.1023 0006245 248.8855 111.1579 14.30146429713084
Epoch (UTC): 28 May 2015 22:18:16
Eccentricity: 0.0006245
inclination: 67.0563°
perigee height: 787 km
apogee height: 796 km
right ascension of ascending node: 228.1023°
argument of perigee: 248.8855°
revolutions per day: 14.30146429
mean anomaly at epoch: 111.1579°
orbit number at epoch: 71308

The dashed part of the orbit path shows where the satellite is in the earth's shadow,  

DLR